アマラウ彗星

C/2020 O2 ( Amaral )

English version
Home page
Updated on July 24, 2022

---------------------------------------------------------------------

・ プロフィール

発見日 2020年7月23日
発見光度 18.1等
発見者 Leonardo S. Amaral (Rio de Janeiro, Brazil)

・ 写真集

・ 軌道要素

Epoch 2022 Jan. 21.0 TT = JDT 2459600.5
T 2021 Aug. 28.60029 TT                                 Rudenko
q   4.8622259            (2000.0)            P               Q
z  -0.0004851      Peri.   10.30737     -0.17084278     +0.34089778
 +/-0.0000014      Node   256.75696     -0.95804170     -0.27663142
e   1.0023587      Incl.   71.75051     -0.23014963     +0.89847858
From 608 observations 2020 July 23-2022 Feb. 11, mean residual 0".4.

・ 星図

・ 光度変化

        m1 = -1.2 + 5 logΔ + 20.0 log r

---------------------------------------------------------------------

軌道要素はM.P.E.C. 2022-C234に掲載されたものです。
星図はステラナビゲータ Ver.10 (アストロアーツ) で作成したものです。
光度グラフはComet for Windowsで作成したものです。

---------------------------------------------------------------------

Copyright(C) Seiichi Yoshida (comet@aerith.net). All rights reserved.